User: anonymous   Login
Location: Piotrkow Trybunalski
(51.4000°N, 19.6830°E)
Time: 12:19:45
(UTC+02:00)
Language:

Oscar 11 - Orbit

View from above orbital plane
View from above orbital plane
View from above satellite
View from above satellite

Ground track
Ground track

The orbit data is extracted from the following two-line orbital elements,

1 14781U 84021B   24110.86659682  .00005873  00000-0  67119-3 0  9994
2 14781  97.7000  81.9191 0006366 269.3547  90.6939 14.86389264160826
Epoch (UTC): 19 April 2024 20:47:53
Eccentricity: 0.0006366
inclination: 97.7000°
perigee height: 605 km
apogee height: 613 km
right ascension of ascending node: 81.9191°
argument of perigee: 269.3547°
revolutions per day: 14.86389264
mean anomaly at epoch: 90.6939°
orbit number at epoch: 16082

The dashed part of the orbit path shows where the satellite is in the earth's shadow,  

DLR